GFSFLT2_sfc_30mbdewp_000.txt.gz
Dewpoint
64 64 62 61 61 61 62 63 65 66 65 65 64 64 64 64 63 63 62 63 64 64 62 61 62 63 62 62 64 64 64 64
63 63 62 59 58 59 61 61 64 66 65 63 62 62 62 61 61 61 61 60 60 60 60 61 62 61 62 62 62 62 62 61
64 63 62 60 58 59 61 61 62 64 65 63 62 61 60 60 59 59 60 59 58 57 57 58 58 57 58 59 59 60 60 59
61 62 62 61 59 61 60 61 61 62 63 64 62 60 59 58 59 59 58 58 58 58 57 56 55 54 54 54 57 59 58 57
55 57 59 58 59 61 62 61 61 61 60 60 59 58 58 59 58 59 57 57 57 57 55 54 53 53 54 54 54 55 56 58
55 56 57 56 58 61 61 60 61 60 59 58 58 57 56 58 57 58 57 56 56 56 56 55 52 51 52 52 53 53 54 55
52 54 56 55 52 50 51 52 55 54 54 53 57 56 56 57 57 56 55 56 56 55 55 56 55 55 55 55 55 55 56 56
51 52 54 55 52 50 47 47 47 48 50 51 54 55 53 55 56 56 54 52 51 50 49 48 49 51 53 55 56 57 57 57
45 48 50 49 52 51 48 45 44 46 48 50 51 48 44 46 47 51 50 50 51 50 47 48 45 48 45 46 49 52 50 50
40 43 47 46 50 50 49 46 43 44 48 47 47 47 45 44 44 43 40 42 47 36 36 37 37 38 39 38 41 46 41 39
32 39 41 40 41 44 41 42 39 40 47 48 46 45 44 42 45 42 38 39 38 36 36 37 34 34 34 36 35 35 33 38
30 27 29 35 37 36 35 36 37 38 43 47 46 43 41 38 42 42 38 38 38 38 35 37 36 35 35 33 35 33 35 34
30 30 30 32 32 32 32 30 33 35 37 45 45 43 40 36 36 41 41 37 37 37 35 35 34 36 34 34 34 34 34 32
29 29 30 31 31 32 31 30 31 32 33 36 41 43 39 36 35 37 39 38 36 37 37 36 36 37 34 35 31 32 33 34
29 29 30 31 32 32 32 34 34 33 33 34 36 40 39 36 35 36 35 35 33 34 34 34 33 35 36 35 32 31 35 35
31 32 32 32 33 33 31 30 29 30 30 31 34 38 38 38 37 36 36 37 36 37 37 36 36 32 34 37 36 37 33 30
34 34 34 34 36 36 34 32 32 32 32 31 31 34 37 38 37 37 38 37 33 30 29 26 29 27 27 29 30 32 33 31
37 37 37 37 38 37 37 35 34 33 33 33 34 35 36 37 36 35 33 30 29 27 27 26 25 25 27 28 29 28 27 29
37 37 37 37 37 36 37 38 38 36 34 34 36 32 30 30 30 30 28 29 30 31 32 32 30 26 25 26 27 29 31 31
37 37 36 35 36 35 37 38 38 39 37 36 34 32 31 31 32 34 35 35 35 34 34 34 30 27 26 27 28 29 31 29

GFSFLT2_sfc_30mbdewp_003.txt.gz
Dewpoint
63 62 62 62 61 62 64 65 66 65 64 64 65 64 64 63 62 62 61 62 63 62 62 61 60 63 61 62 62 63 62 63
62 61 61 60 61 62 62 64 65 65 63 62 61 62 62 61 60 60 59 59 57 57 59 59 59 59 59 59 60 62 61 61
62 62 61 59 58 60 61 62 64 65 64 62 61 60 59 58 58 59 59 59 58 58 57 57 55 53 54 55 56 59 59 59
63 63 62 60 58 60 60 60 62 64 64 62 60 58 58 57 57 57 58 57 57 57 57 56 54 53 54 54 54 55 57 58
63 63 62 61 60 60 60 60 60 61 61 62 60 58 58 58 57 58 56 56 55 55 54 53 50 50 52 52 53 53 54 55
56 58 58 57 59 60 60 60 60 60 59 59 57 56 56 57 57 58 58 56 55 55 55 55 54 54 54 54 55 55 56 56
54 56 57 54 56 55 57 58 60 59 58 57 57 56 55 56 56 57 56 56 56 55 53 53 53 53 54 54 54 55 57 57
51 54 56 53 50 49 50 51 54 53 53 53 56 56 55 55 56 55 55 53 52 49 47 46 45 48 49 49 51 52 54 53
49 51 54 53 52 50 48 47 47 48 50 51 54 54 50 52 54 54 53 49 49 48 42 45 40 43 41 41 41 44 50 45
46 48 49 48 51 51 50 48 46 45 48 49 50 48 44 43 44 47 46 41 48 42 35 36 37 36 37 36 37 40 38 36
38 44 46 45 47 48 47 45 44 42 46 48 47 47 45 44 43 42 41 39 39 36 36 37 34 34 34 35 34 35 34 36
32 38 39 39 38 38 36 36 38 40 39 44 47 46 45 42 43 44 42 38 38 38 36 37 36 35 34 34 34 35 35 34
27 27 28 33 33 33 33 32 32 35 36 37 43 46 44 41 39 41 42 38 37 38 37 35 35 36 35 33 34 35 33 34
29 29 29 30 31 31 31 31 31 32 33 35 39 44 44 42 38 38 41 40 38 38 37 36 36 37 33 34 28 29 33 34
28 28 29 30 32 32 32 33 33 32 32 33 34 40 44 43 39 36 38 41 38 37 37 36 32 36 36 31 28 27 31 34
31 31 32 32 33 33 32 31 31 31 32 32 32 36 37 41 40 37 36 38 37 35 36 35 33 30 33 35 33 31 21 19
36 37 37 37 37 37 37 36 36 36 35 35 34 33 36 39 40 38 37 38 37 37 35 31 27 26 23 26 28 30 31 26
37 37 37 37 36 37 37 36 36 37 37 36 36 36 36 37 38 38 36 32 29 27 26 25 26 26 28 30 26 21 21 24
37 37 37 37 37 36 34 35 36 37 36 37 36 34 34 34 33 31 31 32 34 34 35 35 34 34 32 30 28 26 28 28
38 38 37 37 36 30 30 32 34 35 36 35 36 32 32 34 37 38 39 39 40 40 40 38 37 35 33 29 27 27 29 29

GFSFLT2_sfc_30mbdewp_009.txt.gz
Dewpoint
61 61 61 63 63 63 63 64 64 63 63 64 63 64 63 62 61 61 60 60 59 60 60 60 59 58 58 56 59 60 61 60
61 61 60 60 61 61 62 63 64 63 62 61 61 61 61 60 57 59 59 59 59 58 58 58 57 57 57 56 55 55 57 58
61 61 60 59 59 60 61 62 64 64 62 61 60 59 59 57 57 58 59 57 57 57 57 56 54 53 55 55 53 52 53 53
61 62 61 60 57 60 61 61 62 63 63 62 61 60 58 58 57 57 58 57 56 56 56 54 50 50 52 54 53 55 54 54
61 62 63 61 59 59 60 60 61 61 63 63 61 60 60 59 58 57 57 57 56 55 55 55 56 55 55 54 53 53 53 54
63 63 63 63 62 61 60 60 60 60 61 62 62 60 59 58 57 57 58 58 57 56 56 56 55 55 53 51 50 50 48 50
63 63 63 61 60 60 61 61 61 61 61 61 60 59 58 57 56 57 57 57 57 56 55 50 47 45 47 46 44 45 47 42
60 59 59 58 57 59 59 60 60 60 60 60 60 59 58 57 56 56 56 56 56 56 51 46 44 44 45 44 42 42 44 43
55 56 57 57 55 53 52 53 54 57 58 59 58 57 56 56 55 55 55 56 56 53 49 47 44 42 42 42 41 41 42 40
52 53 54 56 54 54 52 51 50 50 50 51 53 53 54 54 53 53 53 55 54 51 49 44 38 39 38 37 37 37 38 38
49 52 52 52 51 51 53 52 51 50 49 48 49 51 52 52 51 50 51 50 51 50 47 44 37 37 36 37 37 36 37 35
47 47 49 49 47 46 43 43 42 43 43 44 46 46 50 50 50 50 49 46 46 45 44 42 38 37 34 33 37 37 37 37
42 42 44 42 39 37 36 36 36 37 37 39 40 41 44 47 47 47 48 46 45 44 43 42 39 40 38 36 36 38 38 36
34 33 34 34 34 35 36 36 36 37 38 40 40 40 40 41 44 44 44 45 46 46 44 41 39 40 35 35 31 32 34 36
33 34 36 38 39 37 38 38 38 36 35 36 37 40 40 40 41 42 43 44 43 45 45 42 39 39 39 34 31 29 29 33
39 39 39 39 40 38 37 35 34 35 36 36 38 39 40 40 40 41 42 43 43 43 43 43 41 38 39 38 37 33 29 27
40 39 39 40 39 37 36 36 36 36 36 35 35 37 39 39 39 40 41 41 42 42 43 42 40 39 37 37 33 30 30 23
41 39 39 40 40 36 37 37 37 37 36 35 34 35 36 37 37 39 39 39 38 38 36 37 36 36 35 33 30 26 24 25
39 39 38 39 40 36 36 38 38 36 35 34 33 34 34 36 37 39 39 39 39 39 39 39 39 38 38 37 37 36 36 35
40 39 38 39 40 38 37 38 37 35 35 35 35 34 35 39 39 39 39 39 39 39 39 38 37 37 36 35 34 34 35 35

GFSFLT2_sfc_30mbdewp_012.txt.gz
Dewpoint
55 55 60 63 63 63 63 64 63 63 63 64 63 63 62 61 61 61 60 60 59 59 60 59 59 58 56 55 57 58 58 58
56 57 56 57 57 61 62 63 63 63 62 61 61 61 60 59 56 58 59 58 58 58 58 57 57 57 56 54 53 54 54 56
58 58 58 58 56 58 59 61 63 62 61 60 60 56 57 55 56 57 58 57 57 57 56 54 52 53 54 53 53 50 51 50
59 60 60 59 54 57 58 58 57 59 59 61 58 59 58 57 57 57 57 57 54 55 55 54 52 45 47 52 47 50 47 48
59 62 62 60 55 55 54 54 56 57 61 61 59 60 58 57 56 54 53 55 52 51 51 48 50 50 47 48 47 48 44 45
59 61 63 62 57 54 54 54 55 56 57 62 60 58 57 57 54 52 51 50 52 50 50 53 51 48 46 43 42 41 38 41
60 62 63 60 59 55 57 57 55 57 57 57 60 57 55 54 52 51 49 49 49 49 48 48 45 42 40 40 39 39 40 37
60 62 62 56 54 56 55 55 54 55 53 53 58 58 53 51 49 46 45 45 46 47 46 46 42 41 39 41 39 38 38 39
58 60 57 55 53 52 50 48 51 48 48 52 55 55 51 51 47 46 45 45 48 49 49 47 44 39 38 38 39 39 37 38
55 56 53 53 50 50 47 46 48 46 47 48 50 51 52 50 47 46 46 47 46 45 45 43 42 39 36 35 35 35 36 37
53 54 50 49 49 48 49 50 48 45 45 43 44 46 47 48 46 45 47 47 45 45 44 43 42 38 36 35 36 35 34 34
52 50 49 49 47 46 42 41 40 40 38 39 41 41 43 45 44 46 47 47 45 43 44 43 41 40 35 32 33 35 36 35
45 46 43 41 37 36 35 36 36 37 39 41 42 41 42 42 42 42 43 43 44 46 45 44 44 41 40 36 35 37 38 36
37 36 37 36 35 37 39 40 39 40 39 39 38 38 38 37 39 40 39 40 41 43 45 45 44 42 40 37 33 32 35 37
37 38 40 41 40 37 37 37 37 35 35 34 35 36 36 36 36 37 39 39 38 39 41 42 42 43 42 40 34 32 31 32
40 39 39 39 40 37 38 36 35 36 36 35 36 35 34 34 35 37 38 38 38 38 38 40 41 40 41 42 42 39 35 32
41 39 39 40 39 39 37 37 37 36 36 35 33 30 31 32 34 37 38 39 39 42 42 42 42 41 40 40 41 40 39 36
41 39 38 40 40 38 39 39 38 36 34 32 30 30 30 31 34 38 39 40 40 40 40 41 40 40 39 38 37 35 35 34
39 39 37 38 39 37 36 36 37 35 34 32 32 29 30 33 37 38 39 40 40 39 40 39 38 37 37 37 36 35 36 36
41 39 37 35 36 36 36 38 38 35 34 33 31 31 33 36 39 38 38 37 37 39 41 40 38 37 37 36 35 35 36 35

GFSFLT2_sfc_30mbdewp_018.txt.gz
Dewpoint
56 59 60 61 62 63 63 63 63 63 63 63 63 61 61 60 60 60 59 59 58 58 57 57 57 57 57 55 54 54 55 55
54 57 59 60 61 61 62 62 62 61 61 60 61 61 61 58 59 58 58 57 57 56 56 55 55 55 56 55 51 52 51 53
52 52 52 56 59 60 61 61 61 61 61 59 59 60 60 59 56 56 56 56 56 56 55 53 53 53 54 55 54 51 51 45
54 54 54 52 47 57 60 59 60 60 60 59 59 57 57 55 56 57 57 57 57 57 56 55 55 52 53 53 54 51 46 46
56 58 56 54 52 48 53 54 54 57 60 57 58 56 58 56 57 59 59 58 58 56 56 56 54 52 51 49 48 45 44 42
57 59 59 56 55 52 52 54 52 55 55 56 55 55 55 53 53 50 50 48 49 50 48 51 50 52 49 46 44 44 42 42
51 59 61 58 54 53 53 53 56 54 54 54 55 54 54 54 52 51 50 49 48 48 48 48 49 48 48 46 43 43 43 41
53 58 61 56 51 52 53 54 55 55 51 50 52 53 54 53 52 51 50 49 50 48 47 48 49 48 47 46 43 42 42 42
54 57 60 55 50 50 50 49 45 47 49 49 49 50 51 52 51 50 51 51 50 50 49 48 48 48 46 46 45 43 43 42
49 54 60 56 52 49 47 49 48 46 47 48 48 49 50 50 51 51 51 52 51 50 50 49 47 47 46 46 44 42 42 44
43 56 56 55 50 47 48 48 48 48 45 44 46 45 48 48 48 49 50 49 49 49 48 48 48 48 47 45 45 45 42 40
48 55 54 51 48 47 45 44 44 44 43 45 46 45 46 45 45 47 49 46 46 46 47 48 47 48 47 46 46 46 45 44
50 47 45 43 41 40 42 43 43 43 43 45 43 44 43 43 42 43 42 42 43 44 44 44 44 46 46 45 45 47 47 45
41 42 42 42 42 41 43 43 42 42 43 43 43 43 42 41 42 41 41 41 41 43 44 44 43 44 44 43 41 42 43 43
41 41 42 43 44 41 42 42 41 41 42 41 42 42 40 39 39 39 40 41 41 42 41 42 42 43 43 43 40 38 40 41
41 41 41 42 43 43 43 43 42 42 42 41 41 39 40 38 37 38 40 41 41 42 42 43 43 42 43 42 41 42 40 39
43 42 40 42 43 43 42 42 42 41 41 41 39 39 38 37 36 38 39 40 41 43 45 42 41 40 39 39 38 37 38 37
43 41 40 41 40 41 41 42 41 41 40 39 37 36 36 36 37 38 39 43 43 43 42 41 39 38 38 37 36 36 35 35
41 42 41 41 42 42 43 42 41 39 38 37 35 35 35 36 39 41 41 42 40 40 40 39 38 37 37 36 36 35 36 35
41 42 40 39 41 42 42 40 40 39 37 35 35 35 36 37 37 40 39 40 40 40 40 39 39 39 38 37 36 35 36 36

GFSFLT2_sfc_30mbdewp_021.txt.gz
Dewpoint
61 62 62 62 62 62 62 62 63 63 62 62 61 61 61 61 60 59 58 57 56 56 55 54 55 55 56 55 55 55 53 51
56 59 60 61 61 61 61 61 61 60 60 61 60 60 59 59 59 58 57 55 55 55 54 54 55 54 54 53 54 56 50 51
57 57 58 59 59 60 60 60 60 59 60 60 60 60 59 58 59 57 57 56 56 56 54 54 55 54 53 53 53 54 52 48
55 54 58 59 57 59 60 61 61 60 60 61 60 59 60 59 57 57 57 57 57 57 57 56 57 55 53 53 53 52 46 45
55 53 53 54 54 57 59 60 60 60 60 57 55 58 57 55 58 58 57 58 57 57 57 57 55 55 51 50 48 45 43 43
57 56 54 55 53 53 54 55 56 56 57 55 54 55 52 53 50 49 51 51 54 52 51 49 50 50 52 50 46 43 43 43
58 58 56 55 53 54 53 56 53 54 55 54 53 55 52 52 53 51 51 50 49 48 47 47 47 47 47 47 47 44 43 43
60 62 60 57 54 53 53 55 53 55 52 52 53 52 53 53 51 52 50 51 51 50 49 49 49 49 49 48 46 44 42 42
61 58 55 58 55 50 51 52 46 50 49 50 51 50 50 50 51 51 51 53 51 50 50 50 49 48 48 48 48 46 44 42
58 60 54 60 55 49 49 48 47 46 49 51 50 50 50 49 48 48 50 50 49 49 49 49 49 49 48 48 47 47 45 44
57 61 60 57 51 49 49 48 46 47 45 46 46 48 46 44 44 44 46 46 45 47 46 47 45 45 46 46 46 46 46 45
49 52 52 51 48 46 46 46 45 45 45 45 44 44 43 42 41 43 41 41 41 42 42 43 44 44 43 43 46 47 47 47
43 43 42 43 42 41 42 41 42 42 44 43 44 43 42 41 43 42 42 41 42 42 43 42 40 43 40 41 43 44 45 46
42 42 42 42 43 43 44 43 44 44 43 44 43 41 40 38 38 39 40 41 41 42 41 39 40 43 42 42 40 40 41 41
41 42 42 43 43 43 43 43 43 42 41 42 41 40 38 38 37 38 40 40 40 40 40 42 43 43 42 41 39 39 37 40
42 42 42 43 43 42 42 42 40 42 42 41 39 38 37 37 37 38 38 39 40 43 44 42 41 39 40 39 39 38 33 32
42 42 43 43 43 43 42 42 42 42 40 38 37 36 37 36 36 40 42 42 42 42 41 40 40 39 38 37 36 35 37 34
43 42 41 43 43 43 42 41 40 38 37 35 35 36 36 36 40 40 42 40 40 40 40 38 38 38 37 36 36 34 33 33
42 41 40 42 42 43 41 40 39 37 35 34 34 35 35 37 37 40 40 40 40 39 39 39 39 37 37 36 36 35 34 34
41 40 39 40 40 40 39 39 39 36 35 34 34 36 36 36 36 39 39 40 38 38 38 37 37 37 37 38 37 36 36 35

GFSFLT2_sfc_30mbdewp_024.txt.gz
Dewpoint
63 63 63 63 62 62 62 63 64 63 63 62 61 61 61 60 59 58 57 56 55 54 53 54 54 55 54 52 54 55 53 50
60 61 61 60 60 60 61 61 61 61 61 60 60 60 60 60 59 58 57 56 55 54 54 54 54 54 54 54 54 54 51 51
58 58 58 59 60 61 61 60 60 60 60 60 60 60 59 59 59 57 58 57 56 56 56 56 56 55 55 54 55 52 51 46
55 56 57 58 58 60 59 60 60 60 60 60 59 59 60 58 59 59 59 58 57 58 58 59 58 56 54 53 51 50 48 44
56 57 58 57 56 58 59 60 60 60 60 60 60 59 60 60 58 58 58 57 57 56 56 55 55 54 53 52 51 48 44 43
54 56 58 56 55 57 58 58 59 59 60 57 55 53 53 53 52 51 51 50 52 51 52 49 49 49 50 49 50 47 45 43
55 55 55 53 54 55 55 56 58 58 56 55 54 53 52 52 53 51 51 51 51 50 49 49 49 49 49 48 48 47 46 44
59 58 57 56 53 53 54 55 54 56 54 53 53 54 52 53 51 51 50 52 51 50 49 49 49 50 49 49 49 48 47 45
57 58 57 58 54 52 53 53 53 53 51 53 53 52 51 51 50 48 49 49 47 47 47 47 46 46 46 46 47 48 48 47
60 57 55 56 58 52 50 47 47 49 50 51 51 51 49 47 45 44 46 44 43 44 43 43 43 44 44 44 45 46 46 46
60 57 55 57 55 50 50 49 47 47 47 47 48 46 45 43 43 44 43 42 42 43 42 43 42 41 40 40 42 45 46 46
58 57 57 56 48 46 46 44 45 46 45 44 43 43 41 41 41 41 42 41 41 42 42 42 41 39 40 41 42 44 45 45
45 44 44 44 45 43 42 42 43 44 44 43 41 39 39 38 38 39 40 39 40 41 42 39 38 42 42 41 42 42 42 42
42 42 42 42 43 43 43 43 43 43 43 40 39 38 38 36 38 38 39 39 39 40 40 41 41 43 41 41 38 38 40 35
41 41 42 42 42 42 43 43 42 42 41 39 38 38 37 37 38 40 41 42 42 43 43 41 41 41 40 38 35 33 34 35
42 42 43 43 42 42 41 41 40 41 39 37 36 38 37 37 40 41 41 42 41 42 42 41 40 39 39 37 37 37 32 30
42 42 43 43 43 43 42 41 40 40 37 36 35 36 36 39 38 41 41 40 40 40 38 38 39 37 37 36 35 35 35 33
42 41 42 43 43 42 40 39 38 36 35 34 35 36 37 36 37 41 40 39 39 39 39 38 37 37 37 36 35 34 32 31
41 40 42 43 42 40 40 38 37 35 34 33 33 35 35 35 36 38 39 39 39 38 38 36 36 36 36 36 36 36 35 33
41 40 40 41 40 38 39 39 37 35 35 34 36 34 34 34 35 38 39 39 38 38 37 36 37 36 36 36 37 36 38 35

GFSFLT2_sfc_30mbdewp_027.txt.gz
Dewpoint
65 65 65 65 64 64 64 63 63 62 62 62 62 61 61 60 58 57 56 55 54 54 55 55 55 55 55 55 56 56 50 49
61 62 62 62 62 62 62 62 62 62 62 61 60 60 60 60 59 58 57 55 55 55 55 56 56 56 56 56 56 53 50 47
60 60 60 59 59 60 61 61 61 61 61 60 59 59 59 59 59 58 58 57 57 57 58 58 58 57 55 55 55 51 50 46
58 58 58 58 58 59 59 60 60 60 60 59 59 59 59 59 58 59 60 60 59 59 59 59 58 55 54 54 52 51 49 45
56 56 57 57 57 59 58 59 59 59 60 60 59 59 59 60 59 57 57 55 54 54 52 53 50 51 51 51 51 51 49 45
55 56 56 56 56 57 57 58 59 59 59 60 58 56 54 54 52 51 51 51 51 50 50 49 49 49 50 49 49 49 48 47
55 56 57 56 55 56 57 57 58 58 59 57 55 52 52 52 51 51 51 51 50 49 48 48 47 46 46 46 46 47 48 48
55 56 56 54 54 55 55 57 58 58 57 55 54 54 52 52 51 49 48 49 47 46 46 45 43 45 43 44 44 46 47 47
56 57 57 54 53 53 55 55 54 55 54 53 53 52 51 50 47 46 46 45 43 43 43 43 42 43 42 42 43 43 42 45
59 59 57 58 55 51 50 48 49 50 51 51 48 47 46 44 43 42 43 42 42 42 42 42 41 41 40 39 40 41 43 44
59 58 57 55 52 50 46 47 47 47 46 44 43 42 42 40 40 41 41 40 40 41 39 41 38 37 38 39 41 42 44 45
56 56 56 49 48 46 45 45 44 44 42 40 40 39 39 38 38 39 39 38 38 39 39 40 39 40 42 42 42 42 43 41
48 47 46 46 46 44 43 42 43 41 39 39 38 38 38 37 39 40 40 40 41 42 41 41 40 42 42 38 39 41 38 35
42 42 42 42 42 44 43 43 42 40 38 38 38 37 37 39 40 40 41 40 40 42 42 41 42 41 38 38 32 31 36 33
40 41 41 42 43 43 43 43 43 39 38 37 38 37 38 39 40 40 39 40 39 41 41 39 38 40 39 36 33 30 33 33
42 42 42 42 42 41 40 39 40 40 37 37 36 37 38 38 38 39 39 40 39 39 39 38 37 36 36 37 37 36 32 29
42 43 43 43 43 42 42 40 39 38 37 35 35 36 37 36 37 40 39 39 39 38 38 37 37 36 36 36 35 34 34 33
41 43 43 43 42 42 40 39 37 36 35 34 34 36 36 35 37 40 39 38 38 38 38 37 36 36 36 35 35 34 31 33
41 41 42 42 41 40 39 38 37 35 33 33 32 34 35 34 34 38 38 38 39 39 38 36 35 34 35 34 35 35 36 35
40 41 40 41 39 39 39 37 36 35 34 34 33 34 34 34 32 37 38 38 39 38 37 36 35 34 34 33 34 35 35 35

GFSFLT2_sfc_30mbdewp_030.txt.gz
Dewpoint
66 67 67 67 66 65 65 64 63 63 63 62 62 61 60 59 58 58 56 56 56 57 57 58 58 58 58 57 57 55 49 47
64 64 64 64 64 63 63 62 62 62 62 61 60 60 59 59 58 58 58 58 58 59 59 59 59 58 57 57 57 52 49 47
61 61 61 60 61 62 62 62 61 61 60 60 59 58 58 58 59 60 60 60 60 60 59 59 58 55 54 55 53 51 50 48
59 59 59 58 59 60 60 61 60 60 60 60 59 59 59 59 59 59 59 57 55 56 55 54 51 51 51 51 50 50 50 49
57 58 57 57 57 58 58 59 59 59 59 59 59 59 59 59 58 55 52 52 51 50 50 49 49 49 48 48 47 47 48 48
55 57 56 56 56 57 57 58 59 59 59 60 59 57 54 54 51 51 51 51 50 49 49 48 46 46 45 44 44 45 46 47
54 56 56 56 56 57 56 57 58 58 59 58 56 53 52 52 51 50 49 48 47 46 44 43 43 43 42 41 42 43 43 43
55 55 57 57 55 56 56 57 58 58 57 55 54 53 52 50 47 45 44 44 44 43 42 43 42 42 39 40 40 40 41 43
56 57 57 55 53 53 55 54 55 55 52 51 51 49 45 43 42 42 42 41 40 41 40 41 39 40 38 39 40 40 42 44
59 58 57 55 53 53 51 50 51 49 47 45 43 42 41 40 39 38 39 38 39 38 38 38 38 39 39 39 40 41 43 45
57 58 55 54 51 49 47 46 44 42 41 40 39 39 39 38 38 39 39 39 40 41 40 41 40 41 41 42 39 40 43 39
58 55 54 51 50 47 45 43 41 40 39 39 38 38 38 39 40 40 40 40 41 42 41 41 41 41 41 38 38 40 39 36
56 51 50 50 47 43 42 40 39 38 38 39 37 38 39 38 39 38 38 37 39 41 41 40 40 40 38 34 36 39 35 34
52 49 50 46 44 43 42 40 39 38 38 38 37 38 39 39 38 37 37 34 36 40 39 37 38 39 37 36 31 31 33 32
43 43 42 42 43 43 42 42 41 38 37 36 37 38 38 38 37 35 36 38 38 39 38 36 36 37 36 35 31 29 31 31
41 42 42 42 42 42 41 40 40 39 36 36 36 37 37 37 37 37 37 39 37 38 38 37 36 33 35 37 36 35 30 27
42 43 43 43 42 42 41 40 39 38 37 35 35 36 37 36 36 38 38 38 38 37 37 37 36 35 35 35 35 32 32 31
42 43 43 43 43 42 40 38 37 36 36 35 34 35 36 35 36 38 38 38 37 37 37 37 36 35 34 34 34 32 31 32
42 42 42 42 41 40 40 38 37 36 34 33 33 33 34 35 34 36 38 38 38 38 37 37 35 34 33 33 33 33 35 34
41 41 41 41 40 39 39 38 37 35 34 34 34 33 34 35 34 33 36 37 38 38 37 36 35 34 32 32 32 33 33 32

GFSFLT2_sfc_30mbdewp_033.txt.gz
Dewpoint
66 66 67 68 68 67 65 64 64 64 63 63 61 60 60 59 59 59 59 59 60 60 60 60 60 59 58 57 57 54 50 48
65 66 65 65 65 65 63 63 62 62 62 61 60 59 59 60 58 60 61 61 60 60 59 59 56 55 56 55 53 51 50 49
64 64 64 63 62 62 62 62 61 61 61 59 59 58 59 58 59 60 60 58 58 58 57 54 52 51 52 52 51 50 50 49
61 61 60 60 59 61 61 60 59 60 60 60 59 60 60 59 59 58 56 54 54 54 53 50 48 47 45 45 44 46 46 46
58 59 59 58 57 59 59 59 59 60 60 60 60 60 60 60 57 53 53 53 50 49 48 46 46 44 43 42 41 40 41 41
56 58 58 58 57 58 58 58 59 60 60 61 60 59 56 54 53 52 50 48 47 45 44 45 44 43 41 40 40 37 35 35
55 57 57 57 57 58 58 58 59 60 60 58 56 54 54 52 49 46 45 45 44 43 43 42 41 40 39 38 37 37 38 39
56 57 58 57 57 57 58 59 60 60 58 57 56 54 51 47 45 43 41 41 41 39 39 39 37 37 35 37 38 39 40 43
57 58 57 55 56 55 54 55 56 55 54 53 50 47 45 43 42 40 39 40 40 39 38 38 37 38 39 39 40 39 40 43
58 57 55 55 54 53 53 52 51 50 49 46 44 44 43 41 39 39 41 41 40 39 39 35 37 39 36 37 36 35 41 40
58 57 56 56 54 53 50 47 46 43 41 41 42 41 42 40 40 40 40 38 38 36 34 37 36 35 30 34 30 28 41 35
57 57 55 54 54 50 46 43 42 42 41 40 40 40 41 40 39 38 35 34 35 36 36 36 38 36 31 30 29 33 37 35
56 55 55 54 51 45 42 42 41 40 39 39 40 40 40 39 36 36 35 33 36 37 34 33 30 35 30 27 30 40 35 33
56 56 53 50 45 44 43 41 40 39 39 39 39 40 39 37 36 35 36 32 35 36 35 29 31 36 30 28 22 22 31 28
53 51 49 47 45 44 42 41 40 38 38 37 38 39 38 38 37 36 36 35 32 35 35 32 27 30 33 28 22 20 26 26
48 46 45 45 45 44 43 42 41 40 39 38 37 39 38 37 37 38 38 37 34 33 34 33 33 27 29 31 32 30 24 20
44 44 44 44 44 44 43 42 41 39 39 39 39 38 39 38 37 38 38 36 35 36 37 37 35 32 28 28 29 27 26 26
45 44 44 44 44 44 43 42 40 39 39 38 38 37 37 38 37 38 38 38 38 38 38 38 36 35 32 31 29 26 24 25
44 44 43 43 43 43 42 41 41 39 38 37 37 36 35 36 38 37 37 39 39 39 38 37 37 35 33 30 32 30 30 31
43 43 42 42 42 41 41 41 40 39 38 38 37 37 37 38 38 37 36 37 38 39 37 36 37 37 35 33 33 32 32 28

GFSFLT2_sfc_30mbdewp_036.txt.gz
Dewpoint
64 65 66 68 67 66 65 64 64 64 63 62 61 60 60 60 60 60 60 60 61 60 60 59 57 57 56 54 53 51 46 44
59 60 60 61 62 65 63 63 63 63 62 61 60 59 60 58 59 61 61 60 60 59 56 55 54 52 52 52 51 51 44 43
58 58 58 57 56 60 62 62 62 61 60 60 58 55 56 56 60 60 58 58 57 55 53 50 50 48 45 45 45 42 42 41
60 59 58 57 54 56 56 55 56 57 57 58 57 58 58 57 57 56 55 54 52 51 49 47 44 41 41 41 40 41 39 38
54 57 57 54 53 54 54 57 58 59 60 59 60 60 60 58 54 52 53 51 49 48 45 44 45 43 42 41 41 39 37 36
52 54 56 56 54 54 56 56 58 59 60 61 60 59 57 55 52 51 50 48 47 45 44 45 44 43 41 41 40 39 38 37
53 54 54 55 56 56 57 58 59 60 61 61 58 56 55 53 51 48 47 45 44 43 42 42 41 40 39 39 38 38 39 38
55 55 56 55 57 59 59 60 60 61 61 60 58 56 54 51 48 45 43 42 42 41 42 40 39 38 36 38 38 37 35 37
56 58 58 58 57 57 58 57 58 59 58 57 56 53 51 48 45 42 42 42 42 40 38 35 35 33 31 29 32 30 30 36
58 58 57 57 58 57 56 54 54 55 54 52 50 47 46 43 43 42 43 40 36 32 31 31 28 30 27 24 28 25 23 35
58 58 57 57 57 55 55 53 49 47 46 45 44 44 44 43 42 40 37 33 33 31 28 30 29 30 26 23 25 24 23 30
58 59 58 56 55 56 49 46 44 43 42 42 42 43 43 41 37 36 32 30 29 31 31 30 28 31 26 24 26 27 29 31
58 57 57 56 55 52 47 43 42 42 41 42 42 42 39 35 32 33 32 31 32 31 27 26 26 30 27 22 21 26 32 29
58 57 59 56 54 49 45 44 42 42 41 42 42 38 36 33 33 31 32 28 31 32 33 30 25 28 30 25 18 18 19 26
57 57 56 52 46 46 45 44 42 40 40 40 40 38 35 34 33 33 33 33 29 32 32 31 29 27 28 27 23 18 22 22
53 51 49 47 46 43 42 40 40 41 41 41 36 38 36 33 34 35 35 34 34 32 30 34 32 28 28 26 27 27 23 22
48 47 46 45 45 45 44 43 43 42 41 38 36 36 38 36 35 35 35 34 35 36 35 34 32 31 30 26 25 25 24 23
45 44 43 44 45 45 45 43 41 38 35 33 30 32 33 34 35 37 37 38 38 37 36 35 34 34 32 28 26 24 22 22
45 44 44 45 45 44 42 39 36 34 34 32 35 32 33 33 36 36 36 36 37 37 36 35 35 33 32 31 27 26 26 25
43 43 42 43 42 40 39 37 35 34 35 37 35 34 33 32 30 30 29 30 32 35 35 34 32 32 33 32 29 26 24 23